Date_and_time,latitude,longitude,wind_speed,RelWindDirFrom,WindDirFrom,air_pressure,air_temperature,relative_humidity,Temp,platform_speed_wrt_ground,air_pressure_at_mean_sea_level,platform_orientation
2018-09-25 23:40,51.1970783333333,-96.6163783333333,7.5,12.1,243,984.79,9.4,80,12.33,4.7,1011.63,238.4
2018-09-25 23:50,51.1971666666667,-96.6165766666667,3.3,4.6,227,985.01,9.1,83,11.90,0.1,1011.88,238.4
2018-09-26 00:00,51.1971683333333,-96.61659,2.8,4.1,227,984.98,8.9,85,11.84,0.0,1011.85,276.5
2018-09-26 00:10,51.1971666666667,-96.61659,3.8,5.1,230,984.94,8.7,86,11.82,0.0,1011.81,276.5
2018-09-26 00:20,51.1971666666667,-96.6165916666667,4.6,16.3,266,985.17,8.6,86,11.81,0.0,1012.04,276.5
2018-09-26 00:30,51.1971666666667,-96.6165916666667,9.1,16.4,320,985.79,8.4,87,11.79,0.0,1012.71,276.5
2018-09-26 00:40,51.197165,-96.6165916666667,3.7,10.2,352,985.86,7.9,94,11.77,0.0,1012.82,276.5
2018-09-26 00:50,51.1971633333333,-96.61659,2.7,5.7,356,985.84,7.7,94,11.75,0.0,1012.78,276.5
2018-09-26 01:00,51.1971633333333,-96.616595,3.1,6.4,336,985.89,7.8,93,11.73,0.0,1012.83,323.1
2018-09-26 01:10,51.19716,-96.6165916666667,3.5,7.1,316,985.93,8.0,91,11.73,0.0,1012.85,323.1
2018-09-26 01:20,51.1971633333333,-96.6165916666667,4.5,8.4,305,985.93,8.0,91,11.72,0.0,1012.86,323.1
2018-09-26 01:30,51.1971633333333,-96.6165883333333,4.1,7.2,304,985.91,8.1,92,11.72,0.0,1012.84,323.1
2018-09-26 01:40,51.197165,-96.6165883333333,4.5,8.4,302,985.90,8.2,92,11.73,0.0,1012.85,323.1
2018-09-26 01:50,51.1971633333333,-96.6165883333333,4.6,9.3,309,985.94,8.3,91,11.71,0.0,1012.89,323.1
2018-09-26 02:00,51.1971633333333,-96.6165883333333,5.7,9.9,310,985.92,8.3,89,11.81,0.0,1012.88,355.1
2018-09-26 02:10,51.19717,-96.6165866666667,4.8,8.4,316,985.91,8.3,90,11.70,0.0,1012.87,355.1
2018-09-26 02:20,51.19717,-96.6165883333333,4.9,8.2,312,985.94,8.3,91,11.70,0.0,1012.92,355.1
2018-09-26 02:30,51.19717,-96.6165916666667,5.3,9.4,313,985.94,8.3,89,11.69,0.0,1012.94,355.1
2018-09-26 02:40,51.1971716666667,-96.61659,5.3,10.6,314,985.93,8.3,89,11.69,0.0,1012.94,355.1
2018-09-26 02:50,51.1971583333333,-96.6165916666667,6.6,11.8,306,985.92,8.3,89,11.68,0.0,1012.92,355.1
2018-09-26 03:00,51.1971716666667,-96.6165883333333,6.5,13.2,312,985.90,8.1,88,11.67,0.0,1012.91,5.6
2018-09-26 03:10,51.1971716666667,-96.6165916666667,6.5,13.6,315,985.91,8.0,77,11.66,0.0,1012.91,5.6
2018-09-26 03:20,51.19717,-96.616595,8.0,15.0,316,985.85,7.8,76,11.66,0.0,1012.86,5.6
2018-09-26 03:30,51.1971666666667,-96.6165966666667,7.5,13.1,313,985.80,7.6,79,11.67,0.0,1012.81,5.6
2018-09-26 03:40,51.1971716666667,-96.6166183333333,7.4,14.9,310,985.83,7.5,77,11.67,0.0,1012.85,5.6
2018-09-26 03:50,51.1971633333333,-96.61659,8.1,14.4,306,985.84,7.3,73,11.66,0.0,1012.86,5.6
2018-09-26 04:00,51.1971616666667,-96.6165916666667,8.5,14.0,302,985.88,7.0,73,11.67,0.0,1012.92,0.0
2018-09-26 04:10,51.1971716666667,-96.6165983333333,7.9,16.9,304,985.85,6.8,73,11.67,0.0,1012.90,0.0
2018-09-26 04:20,51.1971683333333,-96.6166,8.4,14.1,307,985.79,6.6,74,11.68,0.0,1012.85,0.0
2018-09-26 04:30,51.1971683333333,-96.6165966666667,8.2,14.4,308,985.77,6.5,75,11.66,0.0,1012.83,0.0
2018-09-26 04:40,51.19716,-96.61657,8.8,15.2,306,985.73,6.4,74,11.65,0.0,1012.80,0.0
2018-09-26 04:50,51.1971733333333,-96.6165966666667,7.6,13.2,310,985.77,6.5,74,11.65,0.0,1012.84,0.0
2018-09-26 05:00,51.19717,-96.616595,8.4,14.0,304,985.81,6.4,76,11.70,0.0,1012.89,360.0
2018-09-26 05:10,51.1971716666667,-96.6165916666667,8.0,13.9,311,985.79,6.4,76,11.74,0.0,1012.88,360.0
2018-09-26 05:20,51.1971716666667,-96.6165916666667,7.9,15.2,307,985.74,6.4,76,11.81,0.0,1012.84,360.0
2018-09-26 05:30,51.1971733333333,-96.6165916666667,7.8,13.9,305,985.71,6.2,77,11.82,0.0,1012.83,360.0
2018-09-26 05:40,51.197175,-96.6165933333333,8.0,14.2,308,985.72,6.2,78,11.81,0.0,1012.84,360.0
2018-09-26 05:50,51.1971716666667,-96.61659,7.7,13.2,312,985.67,6.1,78,11.82,0.0,1012.81,360.0
2018-09-26 06:00,51.1971716666667,-96.6165883333333,8.4,15.3,313,985.61,6.0,78,11.85,0.0,1012.77,0.0
2018-09-26 06:10,51.1971733333333,-96.6165883333333,7.5,14.0,309,985.58,5.9,79,11.82,0.0,1012.75,0.0
2018-09-26 06:20,51.1971716666667,-96.6166033333333,9.2,15.0,305,985.57,5.8,80,11.82,0.0,1012.75,0.0
2018-09-26 06:30,51.1971316666667,-96.6165583333333,8.5,16.1,302,985.63,5.7,80,11.86,0.0,1012.82,0.0
2018-09-26 06:40,51.1971916666667,-96.6165966666667,8.7,14.4,301,985.66,5.6,81,11.89,0.0,1012.85,0.0
2018-09-26 06:50,51.197185,-96.61659,8.4,14.5,301,985.71,5.5,82,11.90,0.0,1012.91,0.0
2018-09-26 07:00,51.1971833333333,-96.6165916666667,8.5,14.0,302,985.80,5.4,83,11.90,0.0,1013.01,360.0
2018-09-26 07:10,51.1971816666667,-96.616595,7.7,12.7,299,985.86,5.3,84,11.89,0.0,1013.08,360.0
2018-09-26 07:20,51.1971816666667,-96.6165866666667,8.4,12.8,299,985.86,5.2,85,11.87,0.0,1013.10,360.0
2018-09-26 07:30,51.197165,-96.6165883333333,9.0,13.7,303,985.80,5.1,84,12.00,0.0,1013.03,360.0
2018-09-26 07:40,51.197165,-96.61659,7.2,12.5,299,985.89,5.1,85,11.86,0.0,1013.13,360.0
2018-09-26 07:50,51.1971733333333,-96.6165866666667,6.9,12.5,299,985.94,5.2,86,11.85,0.0,1013.18,360.0
2018-09-26 08:00,51.19717,-96.61659,6.8,11.5,300,985.93,5.2,86,11.85,0.0,1013.17,0.0
2018-09-26 08:10,51.1971716666667,-96.6165916666667,6.6,11.4,299,985.96,5.1,86,11.88,0.0,1013.22,0.0
2018-09-26 08:20,51.19717,-96.61659,6.9,11.7,291,985.94,5.0,88,11.88,0.0,1013.20,0.0
2018-09-26 08:30,51.19717,-96.6165916666667,6.9,12.1,297,985.82,4.9,88,11.87,0.0,1013.10,0.0
2018-09-26 08:40,51.1971716666667,-96.61659,5.7,10.1,295,985.76,4.7,90,11.84,0.0,1013.04,0.0
2018-09-26 08:50,51.1971716666667,-96.61659,6.6,11.3,297,985.67,4.7,90,11.80,0.0,1012.97,0.0
2018-09-26 09:00,51.1971716666667,-96.6165866666667,6.0,9.3,299,985.58,4.8,91,11.74,0.0,1012.87,0.0
2018-09-26 09:10,51.1971633333333,-96.6165716666667,6.2,10.7,294,985.57,4.7,92,11.75,0.0,1012.87,0.0
2018-09-26 09:20,51.19717,-96.6165816666667,5.5,9.3,284,985.55,4.6,93,11.74,0.0,1012.85,0.0
2018-09-26 09:30,51.1971683333333,-96.61658,5.1,9.9,295,985.59,4.5,94,11.72,0.0,1012.90,0.0
2018-09-26 09:40,51.197165,-96.61658,5.5,10.0,293,985.60,4.6,94,11.74,0.0,1012.91,0.0
2018-09-26 09:50,51.197165,-96.6165816666667,5.6,9.5,288,985.61,4.4,94,11.75,0.0,1012.92,0.0
2018-09-26 10:00,51.197165,-96.6165816666667,6.8,10.9,290,985.64,4.3,94,11.73,0.0,1012.96,158.2
2018-09-26 10:10,51.1971666666667,-96.6165833333333,6.8,10.7,299,985.69,4.4,93,11.72,0.0,1013.02,158.2
2018-09-26 10:20,51.1971666666667,-96.61659,6.2,11.7,303,985.73,4.3,93,11.71,0.0,1013.07,158.2
2018-09-26 10:30,51.1971583333333,-96.6165916666667,6.8,10.5,298,985.69,4.1,93,11.70,0.0,1013.04,158.2
2018-09-26 10:40,51.19716,-96.6165866666667,6.2,10.2,302,985.70,4.1,93,11.70,0.0,1013.05,158.2
2018-09-26 10:50,51.1971633333333,-96.6165916666667,6.2,10.3,290,985.72,4.1,94,11.68,0.0,1013.07,158.2
2018-09-26 11:00,51.1971633333333,-96.61659,6.5,11.1,298,985.73,4.0,94,11.68,0.0,1013.09,360.0
2018-09-26 11:10,51.197165,-96.61659,6.7,11.1,298,985.70,4.0,94,11.73,0.0,1013.07,360.0
2018-09-26 11:20,51.197165,-96.6165883333333,5.7,9.1,294,985.77,4.0,95,11.73,0.0,1013.15,360.0
2018-09-26 11:30,51.197165,-96.6165883333333,5.7,10.8,293,985.76,4.0,96,11.71,0.0,1013.13,360.0
2018-09-26 11:40,51.197165,-96.6165883333333,5.9,9.1,291,985.71,4.0,96,11.69,0.0,1013.09,360.0
2018-09-26 11:50,51.1971583333333,-96.61658,5.5,8.3,287,985.64,3.9,96,11.69,0.0,1013.01,360.0
2018-09-26 12:00,51.19716,-96.6165833333333,5.4,7.1,290,985.56,4.0,97,11.66,0.0,1012.94,360.0
2018-09-26 12:10,51.19716,-96.6165916666667,5.2,8.1,281,985.53,4.1,98,11.62,0.0,1012.90,360.0
2018-09-26 12:20,51.20081,-96.6002633333333,2.6,10.6,288,985.50,4.1,99,11.49,3.9,1012.87,360.0
2018-09-26 12:30,51.2293866666667,-96.61896,15.7,18.3,303,984.72,4.4,99,11.74,11.1,1012.06,360.0
2018-09-26 12:40,51.2343833333333,-96.6566216666667,19.1,23.6,279,984.41,4.0,99,11.93,8.7,1011.76,360.0
2018-09-26 12:50,51.227735,-96.6811883333333,15.1,22.1,280,984.69,4.0,98,11.81,6.0,1012.06,360.0
2018-09-26 13:00,51.2243066666667,-96.6911316666667,14.5,16.5,282,984.85,4.3,98,11.89,2.6,1012.21,300.2
2018-09-26 13:10,51.2214916666667,-96.7011866666667,14.5,15.8,280,984.91,4.3,99,12.00,2.5,1012.27,300.2
2018-09-26 13:20,51.2187783333333,-96.712015,14.0,16.4,282,984.96,4.3,98,11.94,2.6,1012.32,300.2
2018-09-26 13:30,51.216535,-96.724565,12.5,20.6,277,984.95,4.2,97,11.78,2.9,1012.32,300.2
2018-09-26 13:40,51.2166033333333,-96.7245333333333,9.6,11.8,280,984.99,4.3,97,11.62,0.0,1012.36,300.2
2018-09-26 13:50,51.2161433333333,-96.7245316666667,8.6,15.4,271,984.97,4.3,97,11.60,0.2,1012.33,300.2
2018-09-26 14:00,51.2276333333333,-96.6799033333333,3.8,7.7,11,985.11,4.5,96,11.71,10.9,1012.47,307.6
2018-09-26 14:10,51.2433916666667,-96.6391916666667,4.5,11.3,352,984.97,4.8,94,11.81,10.8,1012.30,307.6
2018-09-26 14:20,51.2730783333333,-96.6211416666667,10.3,12.3,324,984.73,4.8,94,11.88,11.4,1012.04,307.6
2018-09-26 14:30,51.302395,-96.60184,9.9,12.2,320,984.64,4.9,95,12.02,11.4,1011.96,307.6
2018-09-26 14:40,51.3125316666667,-96.5982416666667,7.3,9.3,267,984.54,5.0,95,12.23,3.7,1011.85,307.6
2018-09-26 14:50,51.3169283333333,-96.5902083333333,7.0,9.0,263,984.44,5.5,90,12.30,2.4,1011.71,307.6
2018-09-26 15:00,51.3237666666667,-96.5855633333333,8.1,9.9,271,984.39,5.6,90,12.33,2.7,1011.66,8.7
2018-09-26 15:10,51.3353283333333,-96.580375,8.5,10.2,278,984.38,5.6,88,12.37,4.3,1011.64,8.7
2018-09-26 15:20,51.3382333333333,-96.57913,7.9,9.6,265,984.22,6.0,86,12.36,1.1,1011.46,8.7
2018-09-26 15:30,51.3382783333333,-96.579195,6.7,8.6,256,984.06,6.1,84,12.36,0.0,1011.29,8.7
2018-09-26 15:40,51.3575583333333,-96.590525,9.2,14.8,295,983.76,6.1,84,12.36,7.4,1010.98,8.7
2018-09-26 15:50,51.38759,-96.60577,12.6,14.8,303,983.63,6.2,83,12.24,11.3,1010.83,8.7
2018-09-26 16:00,51.4114016666667,-96.61689,9.7,14.2,286,983.70,6.2,83,11.87,8.9,1010.89,13.9
2018-09-26 16:10,51.418305,-96.619225,7.2,9.1,244,983.68,6.4,80,11.85,2.5,1010.86,13.9
2018-09-26 16:20,51.4251133333333,-96.6222,6.8,8.4,245,983.62,6.6,77,11.85,2.5,1010.79,13.9
2018-09-26 16:30,51.43193,-96.6254883333333,6.5,9.0,240,983.58,6.6,75,11.81,2.6,1010.74,13.9
2018-09-26 16:40,51.4416383333333,-96.6335166666667,8.0,11.2,255,983.56,6.9,74,11.75,3.9,1010.68,13.9
2018-09-26 16:50,51.4415966666667,-96.633245,7.7,10.3,225,983.39,7.1,72,11.70,0.1,1010.49,13.9
2018-09-26 17:00,51.4415916666667,-96.6332766666667,7.9,9.5,224,983.30,7.3,67,11.70,0.0,1010.39,7.7
2018-09-26 17:10,51.441595,-96.63322,8.4,11.0,222,983.20,7.4,69,11.71,0.0,1010.26,7.7
2018-09-26 17:20,51.441515,-96.6333166666667,8.8,10.5,228,983.09,7.5,68,11.72,0.0,1010.14,7.7
2018-09-26 17:30,51.461995,-96.6448033333333,8.1,15.8,270,983.03,7.5,67,11.72,7.8,1010.08,7.7
2018-09-26 17:40,51.4935583333333,-96.6508416666667,7.8,10.0,295,983.00,7.4,67,11.63,11.4,1010.05,7.7
2018-09-26 17:50,51.52528,-96.6559566666667,6.5,9.8,288,982.85,7.5,70,11.40,11.5,1009.88,7.7
2018-09-26 18:00,51.557085,-96.6632766666667,5.5,8.1,277,982.63,7.5,73,11.53,11.6,1009.66,348.3
2018-09-26 18:10,51.5887916666667,-96.6700133333333,4.5,7.7,275,982.49,7.5,72,11.77,11.5,1009.49,348.3
2018-09-26 18:20,51.6054983333333,-96.678935,5.3,10.5,209,982.34,7.7,73,12.06,6.3,1009.34,348.3
2018-09-26 18:30,51.6089933333333,-96.681255,7.5,9.5,188,982.30,7.7,70,12.21,1.4,1009.27,348.3
2018-09-26 18:40,51.6114333333333,-96.68147,8.3,11.5,179,982.14,7.9,67,12.25,0.9,1009.09,348.3
2018-09-26 18:50,51.6131866666667,-96.6818166666667,8.3,10.5,181,981.94,8.1,66,12.27,0.6,1008.87,348.3
2018-09-26 19:00,51.6132083333333,-96.6817533333333,9.6,11.5,186,981.73,8.2,64,12.28,0.0,1008.64,348.7
2018-09-26 19:10,51.613205,-96.68173,8.9,10.8,180,981.65,8.2,62,12.27,0.0,1008.56,348.7
2018-09-26 19:20,51.6132216666667,-96.681845,8.2,10.9,162,981.54,8.3,59,12.28,0.0,1008.45,348.7
2018-09-26 19:30,51.61318,-96.6818483333333,8.1,11.2,176,981.42,8.6,58,12.29,0.0,1008.30,348.7
2018-09-26 19:40,51.6203833333333,-96.6880233333333,5.7,12.5,195,981.32,8.7,57,12.29,2.9,1008.19,348.7
2018-09-26 19:50,51.64678,-96.7175066666667,5.4,9.6,275,981.25,8.7,57,12.39,11.6,1008.12,348.7
2018-09-26 20:00,51.6728483333333,-96.7478783333333,6.1,8.6,276,981.06,9.2,56,12.51,11.6,1007.90,342.9
2018-09-26 20:10,51.699695,-96.776875,9.1,11.4,324,980.85,9.4,53,12.52,11.6,1007.67,342.9
2018-09-26 20:20,51.7115133333333,-96.7916316666667,4.5,10.5,351,980.84,9.5,53,12.34,5.4,1007.65,342.9
2018-09-26 20:30,51.7117416666667,-96.7905233333333,3.9,6.1,78,980.79,9.3,53,12.26,0.3,1007.60,342.9
2018-09-26 20:40,51.71669,-96.7935016666667,3.8,7.7,59,980.67,9.2,52,12.26,1.9,1007.47,342.9
2018-09-26 20:50,51.74204,-96.82132,8.8,13.6,342,980.49,9.3,50,12.33,11.0,1007.28,342.9
2018-09-26 21:00,51.748005,-96.8282466666667,2.5,7.2,9,980.45,9.7,44,12.35,2.6,1007.22,331.9
2018-09-26 21:10,51.7518233333333,-96.8308983333333,1.3,5.3,38,980.41,9.9,44,12.26,1.5,1007.16,331.9
2018-09-26 21:20,51.7532466666667,-96.832515,2.2,5.7,119,980.39,9.6,47,12.22,0.6,1007.14,331.9
2018-09-26 21:30,51.7532533333333,-96.83228,3.8,5.8,143,980.39,9.6,48,12.22,0.1,1007.14,331.9
2018-09-26 21:40,51.753275,-96.83234,4.9,8.2,154,980.42,9.7,51,12.31,0.0,1007.16,331.9
2018-09-26 21:50,51.7533,-96.8323666666667,9.3,13.6,147,980.22,9.5,56,12.44,0.0,1006.94,331.9
2018-09-26 22:00,51.75318,-96.8321983333333,10.4,13.7,147,980.11,9.5,58,12.53,0.1,1006.82,326.4
2018-09-26 22:10,51.7697366666667,-96.8571933333333,4.0,14.6,183,980.29,9.7,56,12.37,8.2,1006.99,326.4
2018-09-26 22:20,51.7754283333333,-96.86348,8.8,12.9,154,980.17,9.8,57,12.12,2.5,1006.88,326.4
2018-09-26 22:30,51.7754133333333,-96.863405,10.4,12.4,148,979.97,9.6,58,12.02,0.0,1006.68,326.4
2018-09-26 22:40,51.77537,-96.863515,10.1,12.7,142,979.97,9.5,59,12.02,0.0,1006.68,326.4
2018-09-26 22:50,51.77542,-96.863465,10.2,12.3,146,979.96,9.6,60,12.03,0.0,1006.65,326.4
2018-09-26 23:00,51.7750016666667,-96.8631866666667,11.2,14.4,146,979.87,9.6,62,12.00,0.2,1006.54,325.1
2018-09-26 23:10,51.7684216666667,-96.85779,13.6,16.9,146,979.68,9.4,63,12.00,2.7,1006.37,325.1
2018-09-26 23:20,51.75978,-96.851,15.4,17.0,151,979.47,9.3,67,12.03,3.5,1006.16,325.1
2018-09-26 23:30,51.7512666666667,-96.8446883333333,14.9,17.2,147,979.42,9.3,68,11.99,3.4,1006.10,325.1
2018-09-26 23:40,51.73739,-96.8313366666667,17.0,22.5,145,979.17,9.3,68,11.93,5.8,1005.85,325.1
2018-09-26 23:50,51.7121483333333,-96.8094666666667,21.0,22.6,146,978.68,9.5,68,11.99,10.3,1005.35,325.1
